CW7858 Murcia ES current weather conditions

sailwx.info

Wind from 065 at 2 knots gusting 5

Air temperature 27.2° C
Dewpoint 17.1° C

Last reported at 2019-Jul-20 22:02 UTC.
Time now 2019-Jul-20 22:38 UTC

Location: N 37°60' W 001°08'.
View on Google Maps.

See reports from other nearby stations

  
Tides and Currents Weather Stations Pressure Air Temp Water Temp Dewpoint Dewpoint Depression Visibility Wind Speed Wind Dir Waves Ship Positions
date/time (UTC)wind fromknots sea level pressurealtimeterstation pressurevisibilityair tempwater tempwave heightnotes
2019-Jul-20 22:02 065 2 gusting 5 27.2
2019-Jul-20 21:52 054 2 gusting 5 27.2
2019-Jul-20 21:42 073 1 gusting 6 27.2
2019-Jul-20 21:32 096 4 gusting 10 27.2
2019-Jul-20 21:22 088 1 gusting 6 27.2
2019-Jul-20 21:12 109 3 gusting 6 27.2
2019-Jul-20 21:02 109 5 gusting 9 27.2
2019-Jul-20 20:52 034 5 gusting 6 27.2
2019-Jul-20 20:42 073 5 gusting 6 27.2
2019-Jul-20 20:32 107 4 gusting 8 27.8
2019-Jul-20 20:23 119 4 gusting 11 27.8
2019-Jul-20 20:12 093 1 gusting 12 27.8
2019-Jul-20 20:02 086 1 gusting 10 27.8
2019-Jul-20 19:52 117 6 gusting 11 28.3
2019-Jul-20 19:42 069 5 gusting 9 28.3
2019-Jul-20 19:32 052 3 gusting 12 28.3
2019-Jul-20 19:23 092 3 gusting 11 28.9
2019-Jul-20 19:12 100 2 gusting 11 28.9
2019-Jul-20 19:02 069 6 gusting 12 28.9
2019-Jul-20 18:52 114 6 gusting 14 29.4
2019-Jul-20 18:42 344 3 gusting 12 29.4
2019-Jul-20 18:32 102 1 gusting 14 29.4
2019-Jul-20 18:22 110 5 gusting 14 30.0
2019-Jul-20 18:12 103 6 gusting 13 30.6
2019-Jul-20 18:02 121 4 gusting 9 30.6
2019-Jul-20 17:53 021 6 gusting 11 30.6
2019-Jul-20 17:42 065 5 gusting 11 31.1
2019-Jul-20 17:32 076 7 gusting 14 31.1
2019-Jul-20 17:22 065 6 gusting 11 31.1
2019-Jul-20 17:12 090 4 gusting 12 31.1
2019-Jul-20 17:02 044 5 gusting 11 30.6
2019-Jul-20 16:52 075 7 gusting 16 30.6
2019-Jul-20 16:42 056 3 gusting 13 30.6
2019-Jul-20 16:32 075 4 gusting 13 30.6
2019-Jul-20 16:22 298 4 gusting 13 30.6
2019-Jul-20 16:12 093 6 gusting 13 30.6
2019-Jul-20 16:02 073 6 gusting 14 31.1
2019-Jul-20 15:52 082 9 gusting 14 30.6
2019-Jul-20 15:42 088 8 gusting 17 30.6
2019-Jul-20 15:32 097 11 gusting 17 30.0
2019-Jul-20 15:22 092 6 gusting 17 30.6
2019-Jul-20 15:12 360 9 gusting 19 30.6
2019-Jul-20 15:03 044 8 gusting 16 30.6
2019-Jul-20 14:52 089 10 gusting 18 30.0
2019-Jul-20 14:42 360 5 gusting 13 30.6
2019-Jul-20 14:32 047 6 gusting 12 30.0
2019-Jul-20 14:22 038 4 gusting 17 30.0
2019-Jul-20 14:12 088 8 gusting 14 30.0
2019-Jul-20 14:03 095 8 gusting 15 30.6
2019-Jul-20 13:52 058 8 gusting 16 30.6
2019-Jul-20 13:42 100 7 gusting 15 30.6
2019-Jul-20 13:32 044 2 gusting 14 30.6
2019-Jul-20 13:22 086 7 gusting 14 30.6
2019-Jul-20 13:12 073 7 gusting 17 30.6
2019-Jul-20 13:02 090 3 gusting 17 31.1
2019-Jul-20 12:52 113 5 gusting 13 31.1
2019-Jul-20 12:42 121 6 gusting 19 31.1
2019-Jul-20 12:32 092 10 gusting 21 31.1
2019-Jul-20 12:22 082 6 gusting 13 31.1
2019-Jul-20 12:12 064 10 gusting 17 31.1
2019-Jul-20 12:02 066 9 gusting 17 31.7
2019-Jul-20 11:52 353 5 gusting 20 31.7
2019-Jul-20 11:42 085 8 gusting 17 31.7
2019-Jul-20 11:32 034 6 gusting 11 32.2
2019-Jul-20 11:22 056 2 gusting 12 32.8
2019-Jul-20 11:12 078 3 gusting 6 32.2
2019-Jul-20 11:02 031 5 gusting 10 31.7
2019-Jul-20 10:52 068 2 gusting 9 31.7
2019-Jul-20 10:42 066 3 gusting 10 31.7
2019-Jul-20 10:32 095 4 gusting 6 31.1
2019-Jul-20 10:22 104 4 gusting 6 31.1
2019-Jul-20 10:12 030 1 gusting 6 30.6
2019-Jul-20 10:02 093 4 gusting 8 30.6
2019-Jul-20 09:52 120 1 gusting 6 30.6
2019-Jul-20 09:42 114 30.6
2019-Jul-20 09:32 017 4 gusting 6 30.0
2019-Jul-20 09:22 054 1 gusting 5 31.1
2019-Jul-20 09:12 083 1 gusting 3 31.1
2019-Jul-20 09:02 182 31.1
2019-Jul-20 08:52 184 0 gusting 1 30.0
2019-Jul-20 08:42 184 0 gusting 2 29.4
2019-Jul-20 08:32 184 1 gusting 2 28.9
2019-Jul-20 08:22 205 0 gusting 2 28.9
2019-Jul-20 08:12 219 0 gusting 4 27.8
2019-Jul-20 08:02 237 1 gusting 3 27.8
2019-Jul-20 07:52 253 0 gusting 2 27.2
2019-Jul-20 07:42 278 0 gusting 1 26.7
2019-Jul-20 07:32 278 0 gusting 3 26.1
2019-Jul-20 07:22 278 1 gusting 3 26.1
2019-Jul-20 07:12 233 0 gusting 2 25.6
2019-Jul-20 07:02 232 0 gusting 2 25.6
2019-Jul-20 06:52 247 0 gusting 1 25.0
2019-Jul-20 06:42 247 0 gusting 1 24.4
2019-Jul-20 06:32 247 0 gusting 2 24.4
2019-Jul-20 06:22 247 1 gusting 2 23.9
2019-Jul-20 06:12 247 1 gusting 2 23.3
2019-Jul-20 06:02 247 0 gusting 2 23.3
2019-Jul-20 05:52 247 0 gusting 2 23.3
2019-Jul-20 05:42 247 0 gusting 2 23.3
2019-Jul-20 05:32 247 0 gusting 2 23.3
2019-Jul-20 05:22 247 22.8
2019-Jul-20 05:12 247 22.8
2019-Jul-20 05:02 247 1 gusting 3 22.8
2019-Jul-20 04:52 258 2 gusting 4 22.8
2019-Jul-20 04:42 208 2 gusting 4 22.8
2019-Jul-20 04:32 239 1 gusting 5 22.8
2019-Jul-20 04:22 220 0 gusting 2 23.3
2019-Jul-20 04:12 216 0 gusting 5 23.3
2019-Jul-20 04:02 233 0 gusting 2 23.3
2019-Jul-20 03:52 234 0 gusting 1 23.3
2019-Jul-20 03:42 234 0 gusting 2 23.3
2019-Jul-20 03:32 234 0 gusting 3 23.3
2019-Jul-20 03:22 234 1 gusting 3 23.3
2019-Jul-20 03:12 243 1 gusting 3 23.3
2019-Jul-20 03:02 241 1 gusting 5 23.9
2019-Jul-20 02:52 243 1 gusting 4 23.9
2019-Jul-20 02:42 243 0 gusting 4 23.9
2019-Jul-20 02:32 254 0 gusting 2 23.9
2019-Jul-20 02:22 254 0 gusting 2 23.9
2019-Jul-20 02:12 254 0 gusting 2 24.4
2019-Jul-20 02:02 254 24.4
2019-Jul-20 01:52 254 24.4
2019-Jul-20 01:42 254 0 gusting 1 25.0
2019-Jul-20 01:33 254 25.0
2019-Jul-20 01:22 254 1 gusting 4 25.0
2019-Jul-20 01:13 254 1 gusting 2 25.0
2019-Jul-20 01:02 254 1 gusting 2 25.0
2019-Jul-20 00:52 254 1 gusting 2 25.6
2019-Jul-20 00:42 254 0 gusting 3 25.6
2019-Jul-20 00:32 258 0 gusting 2 25.6
2019-Jul-20 00:22 027 0 gusting 1 25.6
2019-Jul-20 00:12 027 25.6
2019-Jul-20 00:02 027 25.6
2019-Jul-19 23:52 025 25.6
2019-Jul-19 23:42 356 25.6
2019-Jul-19 23:32 020 1 gusting 2 25.6
2019-Jul-19 23:23 093 1 gusting 4 25.6
2019-Jul-19 23:12 073 25.6
2019-Jul-19 23:02 082 1 gusting 5 25.6
2019-Jul-19 22:52 078 1 gusting 4 25.6
2019-Jul-19 22:42 064 3 gusting 5 25.6
2019-Jul-19 22:32 065 2 gusting 6 25.6
2019-Jul-19 22:22 035 3 gusting 6 25.6
2019-Jul-19 22:12 025 2 gusting 5 26.1
2019-Jul-19 22:02 055 2 gusting 4 26.1
2019-Jul-19 21:52 069 0 gusting 2 26.1
2019-Jul-19 21:42 104 1 gusting 5 26.1
2019-Jul-19 21:33 102 3 gusting 6 26.1
2019-Jul-19 21:22 058 3 gusting 6 26.1
2019-Jul-19 21:12 013 2 gusting 6 26.1
2019-Jul-19 21:02 092 6 gusting 6 26.1
2019-Jul-19 20:52 078 6 gusting 8 26.7
2019-Jul-19 20:42 360 0 gusting 6 26.7
2019-Jul-19 20:32 013 1 gusting 9 26.7
2019-Jul-19 20:22 080 6 gusting 10 26.7
2019-Jul-19 20:12 099 6 gusting 10 26.7
2019-Jul-19 20:02 088 3 gusting 11 27.2
2019-Jul-19 19:52 052 6 gusting 13 27.2
2019-Jul-19 19:43 065 4 gusting 10 27.2
2019-Jul-19 19:32 328 5 gusting 9 27.8
2019-Jul-19 19:22 099 3 gusting 11 27.8
2019-Jul-19 19:12 100 6 gusting 9 28.3
2019-Jul-19 19:02 071 4 gusting 11 28.3
2019-Jul-19 18:52 079 1 gusting 11 28.9
2019-Jul-19 18:42 092 6 gusting 10 28.9
2019-Jul-19 18:32 007 3 gusting 10 29.4
2019-Jul-19 18:22 056 3 gusting 12 29.4
2019-Jul-19 18:12 049 5 gusting 11 29.4
2019-Jul-19 18:03 068 5 gusting 14 30.0
2019-Jul-19 17:52 047 6 gusting 12 30.0
2019-Jul-19 17:42 092 6 gusting 14 30.6
2019-Jul-19 17:32 106 3 gusting 13 30.6
2019-Jul-19 17:22 073 6 gusting 13 30.6
2019-Jul-19 17:12 090 4 gusting 13 31.1
2019-Jul-19 17:02 021 5 gusting 12 31.1
2019-Jul-19 16:52 109 3 gusting 13 31.1
2019-Jul-19 16:42 123 8 gusting 13 31.1
2019-Jul-19 16:32 059 7 gusting 16 31.1
2019-Jul-19 16:22 145 3 gusting 14 31.1
2019-Jul-19 16:12 353 6 gusting 12 31.1
2019-Jul-19 16:03 109 6 gusting 15 31.7
2019-Jul-19 15:52 086 8 gusting 14 31.7
2019-Jul-19 15:42 119 6 gusting 13 31.7
2019-Jul-19 15:32 023 6 gusting 13 31.7
2019-Jul-19 15:22 008 3 gusting 14 31.7
2019-Jul-19 15:12 104 3 gusting 14 31.7
2019-Jul-19 15:02 120 5 gusting 13 31.7
2019-Jul-19 14:52 092 7 gusting 13 31.7
2019-Jul-19 14:42 073 5 gusting 11 32.2
2019-Jul-19 14:32 104 6 gusting 12 32.2
2019-Jul-19 14:22 145 6 gusting 14 31.7
2019-Jul-19 14:12 099 6 gusting 13 31.7
2019-Jul-19 14:03 090 7 gusting 11 32.2
2019-Jul-19 13:52 120 4 gusting 12 32.2
2019-Jul-19 13:42 114 4 gusting 14 32.2
2019-Jul-19 13:32 093 7 gusting 14 32.2
2019-Jul-19 13:22 066 4 gusting 14 32.2
2019-Jul-19 13:12 121 3 gusting 16 32.2
2019-Jul-19 13:02 076 7 gusting 15 32.2
2019-Jul-19 12:52 051 6 gusting 13 32.2
2019-Jul-19 12:42 075 6 gusting 13 32.2
2019-Jul-19 12:32 110 6 gusting 15 32.2
2019-Jul-19 12:22 073 5 gusting 13 32.2
2019-Jul-19 12:12 068 3 gusting 11 32.2
2019-Jul-19 12:02 062 5 gusting 16 32.2
2019-Jul-19 11:52 062 6 gusting 12 32.2
2019-Jul-19 11:42 128 6 gusting 13 32.2
2019-Jul-19 11:32 023 1 gusting 13 31.7
2019-Jul-19 11:22 360 4 gusting 9 31.7
2019-Jul-19 11:12 069 2 gusting 9 31.1
2019-Jul-19 11:02 088 3 gusting 11 31.1
2019-Jul-19 10:52 072 3 gusting 6 30.6
2019-Jul-19 10:42 093 6 gusting 8 30.6
2019-Jul-19 10:32 107 4 gusting 10 30.0
2019-Jul-19 10:22 001 1 gusting 10 30.0
2019-Jul-19 10:12 059 2 gusting 6 29.4
2019-Jul-19 10:02 329 1 gusting 6 28.9
2019-Jul-19 09:52 107 3 gusting 6 28.9
2019-Jul-19 09:42 096 1 gusting 5 28.3
2019-Jul-19 09:32 048 2 gusting 6 27.8
2019-Jul-19 09:22 023 2 gusting 6 27.8
2019-Jul-19 09:12 025 1 gusting 6 27.8
2019-Jul-19 09:02 051 1 gusting 3 27.2
2019-Jul-19 08:52 037 1 gusting 4 27.2
2019-Jul-19 08:42 035 2 gusting 5 26.7
2019-Jul-19 08:32 097 0 gusting 5 26.7
2019-Jul-19 08:22 035 0 gusting 5 26.1
2019-Jul-19 08:12 360 25.6
2019-Jul-19 08:02 342 1 gusting 5 25.6
2019-Jul-19 07:52 360 1 gusting 3 25.6
2019-Jul-19 07:42 209 0 gusting 2 25.6
2019-Jul-19 07:32 208 0 gusting 2 25.0
2019-Jul-19 07:22 208 0 gusting 2 25.0
2019-Jul-19 07:12 208 0 gusting 3 25.0
2019-Jul-19 07:03 209 0 gusting 2 24.4
2019-Jul-19 06:52 213 23.9
2019-Jul-19 06:42 213 1 gusting 2 23.9
2019-Jul-19 06:32 213 0 gusting 1 23.3
2019-Jul-19 06:22 213 0 gusting 1 23.3
2019-Jul-19 06:12 213 0 gusting 2 23.3
2019-Jul-19 06:03 223 1 gusting 2 22.8
2019-Jul-19 05:52 223 0 gusting 1 22.8
2019-Jul-19 05:42 224 0 gusting 2 22.2
2019-Jul-19 05:32 224 0 gusting 2 22.2
2019-Jul-19 05:22 224 22.2
2019-Jul-19 05:12 224 22.2
2019-Jul-19 05:02 224 0 gusting 1 22.2
2019-Jul-19 04:52 224 0 gusting 2 22.2
2019-Jul-19 04:42 224 22.2
2019-Jul-19 04:32 224 0 gusting 1 22.8
2019-Jul-19 04:22 224 0 gusting 1 22.8
2019-Jul-19 04:12 224 22.8
2019-Jul-19 04:02 224 0 gusting 2 22.8
2019-Jul-19 03:52 220 0 gusting 2 22.8
2019-Jul-19 03:42 220 22.8
2019-Jul-19 03:32 220 22.8
2019-Jul-19 03:22 220 0 gusting 2 22.8
2019-Jul-19 03:12 138 0 gusting 2 23.3
2019-Jul-19 03:02 104 23.3
2019-Jul-19 02:52 104 23.9
2019-Jul-19 02:42 104 23.9
2019-Jul-19 02:33 104 1 gusting 2 23.9
2019-Jul-19 02:22 075 0 gusting 1 23.9
2019-Jul-19 02:12 075 1 gusting 2 23.9
2019-Jul-19 02:02 075 0 gusting 2 23.9
2019-Jul-19 01:52 075 1 gusting 2 23.9
2019-Jul-19 01:42 075 0 gusting 2 23.9
2019-Jul-19 01:33 079 1 gusting 4 23.9
2019-Jul-19 01:22 065 0 gusting 4 24.4
2019-Jul-19 01:12 065 0 gusting 2 24.4
2019-Jul-19 01:02 066 0 gusting 2 24.4
2019-Jul-19 00:52 065 0 gusting 3 24.4
2019-Jul-19 00:42 102 1 gusting 4 24.4
2019-Jul-19 00:32 088 2 gusting 4 24.4
2019-Jul-19 00:22 064 1 gusting 4 24.4
2019-Jul-19 00:12 061 1 gusting 5 24.4
2019-Jul-19 00:02 083 2 gusting 4 24.4
2019-Jul-18 23:52 061 1 gusting 4 25.0
2019-Jul-18 23:42 104 1 gusting 4 25.0
2019-Jul-18 23:32 073 1 gusting 4 25.0
2019-Jul-18 23:22 072 1 gusting 5 25.0
2019-Jul-18 23:12 059 2 gusting 5 25.0
2019-Jul-18 23:02 075 2 gusting 6 25.0
2019-Jul-18 22:52 079 1 gusting 4 25.0
2019-Jul-18 22:42 066 1 gusting 5 25.0
2019-Jul-18 22:32 058 4 gusting 6 25.0
2019-Jul-18 22:22 072 4 gusting 6 25.6
2019-Jul-18 22:12 078 2 gusting 5 25.6
2019-Jul-18 22:02 096 4 gusting 6 25.6